Regional Weather Roundup
Issued by NWS

Home | Current Version | Previous Version | Text Only | Print | Product List | Glossary On
Versions: 1 2 3 4 5 6 7 8 9 10 11 12 13 14 15 16 17 18 19 20 21 22 23 24 25 26 27 28 29 30 31 32 33 34 35 36 37 38 39 40 41 42 43 44 45 46 47 48 49 50
000
ASUS44 KJAN 301610
RWRMS

MISSISSIPPI HOURLY WEATHER ROUNDUP
NATIONAL WEATHER SERVICE JACKSON MS
1100 AM CDT WED JUL 30 2014

NOTE: "FAIR: INDICATES FEW OR NO CLOUDS BELOW 12,000 FEET WITH NO
SIGNIFICANT WEATHER AND/OR OBSTRUCTIONS TO VISIBILITY.

MSZ001>002-007>008-010>013-018>021-025>028-034>036-301700-
NORTHWEST MISSISSIPPI

CITY           SKY/WX    TMP DP  RH WIND       PRES   REMARKS
CLARKSDALE     FAIR      77  57  50 S5        30.14S
CLEVELAND      FAIR      78  60  54 S5        30.12S
GREENWOOD      FAIR      77  53  43 CALM      30.13S
GREENVILLE     FAIR      78  59  51 S6        30.13R
GRENADA        FAIR      77  54  44 SE5       30.13S
OLIVE BRANCH   MOSUNNY   75  57  53 SW5       30.14S
OXFORD         FAIR      75  57  53 CALM      30.15S
TUNICA         FAIR      77  55  47 SW3       30.14S
$$

MSZ003>006-009-014>017-022>024-029>033-037>039-301700-
NORTHEAST MISSISSIPPI

CITY           SKY/WX    TMP DP  RH WIND       PRES   REMARKS
BELMONT        FAIR      75  59  58 CALM      30.13S
COLUMBUS AFB   SUNNY     76  58  54 VRB2      30.12F
CORINTH        FAIR      77  55  47 CALM      30.13S
STARKVILLE     FAIR      77  57  50 CALM      30.12F
TUPELO         FAIR      78  55  44 CALM      30.12S
$$

MSZ040-058-301700-
CENTRAL MISSISSIPPI

CITY           SKY/WX    TMP DP  RH WIND       PRES   REMARKS
JACKSON INTL   FAIR      79  55  43 E6        30.12S
JACKSON HAWKNS FAIR      78  54  43 VRB3      30.12S
MERIDIAN KEY   FAIR      79  53  40 E5        30.11S
MERIDIAN NAS   FAIR      78  54  43 VRB6      30.12S
RAYMOND        FAIR      77  73  88 E3        30.12S
VICKSBURG      FAIR      79  56  45 SE6       30.12S
$$

MSZ059>079-301700-
SOUTH MISSISSIPPI

CITY           SKY/WX    TMP DP  RH WIND       PRES   REMARKS
BROOKHAVEN     FAIR      77  57  50 N7        30.13F
COLUMBIA       FAIR      79  57  47 CALM      30.09F
HATTIESBURG    FAIR      79  56  45 E9        30.10F
MCCOMB         FAIR      77  56  48 E6        30.11S
NATCHEZ        FAIR      79  61  53 CALM      30.12S
PINE BELT      FAIR      79  54  41 E6        30.12S
$$

MSZ080>082-301700-
COASTAL MISSISSIPPI

CITY           SKY/WX    TMP DP  RH WIND       PRES   REMARKS
BILOXI         FAIR      81  59  46 NE6       30.07S
PASCAGOULA     FAIR      81  59  47 VRB6      30.07S
GULFPORT       FAIR      85  57  38 N7        30.07S
$$



USA.gov is the U.S. government's official web portal to all federal, state and local government web resources and services.